Location: Hylvaty SDH
(49.9612°N, 16.4057°E)
Time: 01:09:26
(UTC+02:00)

A-11 Canister half - Visible Passes

Search period start: 02 October 2020 00:00
Search period end: 12 October 2020 00:00
Orbit: 1514 x 1685 km, 47.2° (Epoch: 01 October)

Date Brightness Start Highest point End Pass type
(mag) Time Alt. Az. Time Alt. Az. Time Alt. Az.
02 Oct 10.3 02:55:54 23° SE 02:56:48 24° SE 03:03:44 10° E visible
02 Oct 9.4 04:54:07 23° SW 05:00:13 55° SSE 05:09:11 10° E visible
03 Oct 10.3 02:34:24 22° SE 02:34:24 22° SE 02:40:43 10° E visible
03 Oct 9.3 04:32:37 30° SSW 04:37:21 54° SSE 04:46:17 10° E visible
04 Oct 10.5 02:12:52 20° ESE 02:12:52 20° ESE 02:17:39 10° E visible
04 Oct 9.3 04:11:05 37° SSW 04:14:29 52° SSE 04:23:24 10° E visible
04 Oct 9.1 06:09:21 10° WSW 06:18:50 76° S 06:28:05 10° E visible
05 Oct 10.7 01:51:18 17° ESE 01:51:18 17° ESE 01:54:35 10° E visible
05 Oct 9.3 03:49:30 44° S 03:51:37 50° SSE 04:00:30 10° E visible
05 Oct 9.1 05:47:42 15° WSW 05:55:56 75° S 06:05:11 10° E visible
06 Oct 10.8 01:29:43 14° E 01:29:43 14° E 01:31:29 10° E visible
06 Oct 9.3 03:27:55 47° SSE 03:28:45 48° SSE 03:37:35 10° E visible
06 Oct 9.0 05:26:07 21° WSW 05:33:02 75° S 05:42:18 10° E visible
07 Oct 11.0 01:08:06 11° E 01:08:06 11° E 01:08:20 10° E visible
07 Oct 9.4 03:06:18 46° SE 03:06:18 46° SE 03:14:41 10° E visible
07 Oct 9.0 05:04:30 28° WSW 05:10:08 74° S 05:19:24 10° E visible
08 Oct 9.6 02:44:40 42° ESE 02:44:40 42° ESE 02:51:47 10° E visible
08 Oct 9.0 04:42:52 37° WSW 04:47:13 73° S 04:56:30 10° E visible
09 Oct 9.9 02:23:01 35° ESE 02:23:01 35° ESE 02:28:52 10° E visible
09 Oct 9.0 04:21:13 47° WSW 04:24:19 72° SSE 04:33:37 10° E visible
09 Oct 9.1 06:19:31 10° W 06:28:57 71° SSW 06:38:09 10° ESE visible
10 Oct 10.2 02:01:22 29° E 02:01:22 29° E 02:05:57 10° E visible
10 Oct 8.9 03:59:34 59° SW 04:01:25 71° SSE 04:10:44 10° E visible
10 Oct 9.1 05:57:46 15° W 06:06:04 73° S 06:15:17 10° ESE visible
11 Oct 10.5 01:39:43 23° E 01:39:43 23° E 01:43:01 10° E visible
11 Oct 8.9 03:37:55 69° S 03:38:31 70° SSE 03:47:50 10° E visible
11 Oct 9.0 05:36:07 20° W 05:43:10 73° S 05:52:25 10° ESE visible
